Weather History for Annette Island, AK

Change the Weather History Date:

Wednesday, December 19, 2012

  Actual Average Record
Temperature  
Mean Temperature 37 °F 37 °F  
Max Temperature 39 °F 41 °F 57 °F (1985)
Min Temperature 34 °F 33 °F 10 °F (2008)
Degree Days  
Heating Degree Days 28 28  
Month to date heating degree days 547 525  
Since 1 July heating degree days 2677 2575  
Cooling Degree Days 0    
Month to date cooling degree days 0  
Year to date cooling degree days 7  
Moisture  
Dew Point 28 °F    
Average Humidity 0    
Maximum Humidity 0    
Minimum Humidity 0    
Precipitation  
Precipitation 0.01 in 0.34 in 2.51 in (1954)
Month to date precipitation 7.46 6.75  
Year to date precipitation 102.57 97.66  
Snow  
Snow T in 0.30 in 12.10 in (1970)
Month to date snowfall 10.9 4.6  
Since 1 July snowfall 10.9 8.2  
Snow Depth 8.00 in    
Sea Level Pressure  
Sea Level Pressure 29.17 in    
Wind  
Wind Speed 14 mph (ESE)    
Max Wind Speed 22 mph    
Max Gust Speed 44 mph    
Visibility 8 miles    
Events Snow    
T = Trace of Precipitation, MM = Missing Value Source: NWS Daily Summary

Daily Weather History Graph

Daily Weather History Graph

Search for Another Location

Airport:

Trip Planner

Search our weather history database for the weather conditions in past years. The results will help you decide how hot, cold, wet, or windy it might be!

Date:

Astronomy

Dec. 19, 2012 Rise Set
Actual Time 8:08 AM AKST 3:18 PM AKST
Civil Twilight 7:23 AM AKST 4:04 PM AKST
Nautical Twilight 6:35 AM AKST 4:52 PM AKST
Astronomical Twilight 5:50 AM AKST 5:36 PM AKST
Moon 11:12 AM AKST (12/19) No Moon Set
Length of Visible Light 8h 41m
Length of Day
7h 09m
Waxing Crescent, 46% of the Moon is Illuminated
Dec 19
Waxing Crescent
Dec 19
First Quarter
Dec 28
Full
Jan 4
Last Quarter
Jan 11
New

Hourly Weather History & Observations

Time (AKST) Temp. Windchill Dew Point Humidity Pressure Visibility Wind Dir Wind Speed Gust Speed Precip Events Conditions
12:25 AM 35.6 °F 25.9 °F 28.4 °F 75% 29.16 in 2.0 mi ESE 16.1 mph 34.5 mph 0.00 in Snow Light Snow
12:36 AM 33.8 °F 23.2 °F 30.2 °F 87% 29.15 in 1.5 mi ESE 17.3 mph 33.4 mph 0.00 in Snow Light Snow
12:53 AM 34.0 °F 24.6 °F 30.0 °F 85% 29.15 in 2.0 mi ESE 13.8 mph 29.9 mph 0.00 in Snow Light Snow
1:08 AM 35.6 °F 25.9 °F 30.2 °F 81% 29.14 in 4.0 mi ESE 16.1 mph 32.2 mph 0.00 in Snow Light Snow
1:53 AM 37.0 °F 27.4 °F 27.0 °F 67% 29.12 in 9.0 mi East 17.3 mph 32.2 mph 0.01 in Snow Light Snow
2:53 AM 37.0 °F 27.4 °F 27.0 °F 67% 29.11 in 9.0 mi East 17.3 mph 32.2 mph 0.00 in   Overcast
3:53 AM 36.0 °F 25.3 °F 28.9 °F 76% 29.10 in 4.0 mi ESE 19.6 mph 33.4 mph 0.00 in Snow Light Snow
4:03 AM 35.6 °F 25.9 °F 30.2 °F 81% 29.10 in 3.0 mi ESE 16.1 mph 28.8 mph 0.00 in Snow Light Snow
4:35 AM 37.4 °F 27.5 °F 28.4 °F 70% 29.08 in 9.0 mi ESE 18.4 mph 27.6 mph 0.00 in   Overcast
4:53 AM 37.9 °F 28.5 °F 28.0 °F 68% 29.08 in 10.0 mi East 17.3 mph 32.2 mph 0.00 in   Overcast
5:43 AM 37.4 °F 28.2 °F 28.4 °F 70% 29.08 in 10.0 mi ESE 16.1 mph 27.6 mph 0.00 in   Overcast
5:53 AM 36.0 °F 27.1 °F 28.9 °F 76% 29.08 in 10.0 mi ESE 13.8 mph 31.1 mph 0.00 in   Overcast
6:53 AM 37.0 °F 29.3 °F 28.0 °F 70% 29.09 in 10.0 mi East 11.5 mph 27.6 mph N/A   Overcast
7:24 AM 35.6 °F 27.1 °F 30.2 °F 81% 29.09 in 6.0 mi ESE 12.7 mph 21.9 mph 0.00 in Snow Light Snow
7:45 AM 37.4 °F 29.3 °F 28.4 °F 70% 29.09 in 9.0 mi East 12.7 mph 31.1 mph 0.00 in Snow Light Snow
7:53 AM 37.0 °F 27.7 °F 28.0 °F 70% 29.09 in 9.0 mi East 16.1 mph 24.2 mph 0.00 in   Mostly Cloudy
8:26 AM 37.4 °F 30.8 °F 28.4 °F 70% 29.10 in 7.0 mi East 9.2 mph 27.6 mph 0.00 in Snow Light Snow
8:42 AM 35.6 °F 28.6 °F 30.2 °F 81% 29.09 in 9.0 mi ENE 9.2 mph 16.1 mph 0.00 in   Overcast
8:51 AM 37.4 °F 30.3 °F 28.4 °F 70% 29.09 in 10.0 mi ESE 10.4 mph 19.6 mph 0.00 in   Mostly Cloudy
8:53 AM 37.9 °F 31.5 °F 27.0 °F 65% 29.10 in 10.0 mi ESE 9.2 mph 19.6 mph 0.00 in   Mostly Cloudy
9:53 AM 37.9 °F 30.5 °F 28.0 °F 68% 29.13 in 10.0 mi ESE 11.5 mph 23.0 mph N/A   Overcast
10:53 AM 37.0 °F 29.3 °F 27.0 °F 67% 29.14 in 10.0 mi ESE 11.5 mph 24.2 mph N/A   Overcast
11:53 AM 37.9 °F 30.5 °F 28.0 °F 68% 29.15 in 10.0 mi East 11.5 mph 20.7 mph N/A   Overcast
12:53 PM 37.0 °F 31.0 °F 28.9 °F 73% 29.16 in 10.0 mi East 8.1 mph - N/A   Mostly Cloudy
1:53 PM 37.0 °F 29.3 °F 30.0 °F 76% 29.18 in 10.0 mi ESE 11.5 mph 18.4 mph N/A   Overcast
2:53 PM 37.9 °F 32.7 °F 28.0 °F 68% 29.19 in 10.0 mi ESE 6.9 mph 19.6 mph N/A   Mostly Cloudy
3:53 PM 37.0 °F 31.6 °F 28.9 °F 73% 29.22 in 10.0 mi Variable 6.9 mph - N/A   Overcast
4:07 PM 37.4 °F 31.4 °F 28.4 °F 70% 29.22 in 10.0 mi East 8.1 mph - N/A   Overcast
4:53 PM 37.0 °F 31.0 °F 30.0 °F 76% 29.25 in 10.0 mi East 8.1 mph - N/A   Overcast
5:26 PM 37.4 °F 31.4 °F 28.4 °F 70% 29.25 in 10.0 mi ESE 8.1 mph - N/A   Overcast
5:53 PM 37.0 °F 31.0 °F 28.9 °F 73% 29.26 in 10.0 mi ENE 8.1 mph - N/A   Overcast
6:53 PM 37.9 °F 31.5 °F 27.0 °F 65% 29.29 in 10.0 mi ESE 9.2 mph - N/A   Scattered Clouds
7:53 PM 37.9 °F 32.7 °F 27.0 °F 65% 29.31 in 10.0 mi Variable 6.9 mph 16.1 mph N/A   Partly Cloudy
8:53 PM 37.9 °F 29.6 °F 27.0 °F 65% 29.34 in 10.0 mi ENE 13.8 mph 21.9 mph N/A   Mostly Cloudy
9:53 PM 37.9 °F 32.1 °F 27.0 °F 65% 29.36 in 10.0 mi East 8.1 mph - N/A   Mostly Cloudy
10:53 PM 37.9 °F 32.7 °F 27.0 °F 65% 29.38 in 10.0 mi ESE 6.9 mph - N/A   Overcast
11:53 PM 37.9 °F 30.9 °F 27.0 °F 65% 29.40 in 10.0 mi ESE 10.4 mph - N/A   Overcast